Погода в Череповеце

Погода в Череповеце : погода сейчас, прогноз погоды и архив. Всё, что Вы хотите узнать о погоде в Череповеце!

Хотите узнать прогноз погоды в Череповеце? Тогда Вам сюда: Погода в Череповеце

Поиск расширенной информации на нашем сайте:

Полезная информация:

Другие новости

Новости СМИ2

Главная страница сайта

Новости сайта

03.07.2017

Напоминаем, что на нашем специализированном сайте Метеоцентр.Азия вы можете получить высокодетализированные автоматические прогнозы погоды по пунктам России, СНГ и мира в авиационном формате (включающие направление и скорость ветра, видимость, явления погоды, количество и форму облачности, нижнюю и верхнюю границу облачности).

Рекомендуем:

Погода в Череповеце - сегодня

Время (UTC), дата Ветер
(°,м/с) 
Видим.   Явления Облачность Т
(°С)
Тd
(°С)
f(%) Тe
(°С)
Pmin
(гПа)
dP
(гПа)
Po
(мм)
O2
(г/м3)
Тmin Tmax R s Состояние
почвы
09 15.09.19 260 (З) 5{10}  10 км    8/6 800 м верхняя 
[Sc|Ci fib]
+10.5 +4.8 68 +9  1009.2  -1  746  289           
12 15.09.19 260 (З) 5{10}  10 км    9/6 800 м кучево-дожд., средняя, верхняя 
[Cb calv|Ac trans|Ci fib]
+11.3 +3.4 58 +10  1007.1  -2  745  288           
15 15.09.19 220 (ЮЗ) 4{10}  10 км    10/6 1000 м кучево-дожд., средняя 
[Cb calv|Ac trans]
+9.7 +4.3 69 +9  1003.8  -3.4  742  288    +12.2       
18 15.09.19 190 (Ю) 9-12{12}  6000 м  слаб. ливневой дождь  10/10 300 м кучево-дожд. 
[Cb calv]
+7.6 +6.3 91 +5  999.2  -4.6  739  289           
21 15.09.19 210 (ЮЗ) 7-10{12}  10 км  слаб. ливневой дождь  10/10 240 м кучево-дожд. 
[Cb calv]
+7.9 +7 94 +6  993.1  -6  734  286           
00 16.09.19 220 (ЮЗ) 7-10{13}  10 км  в посл. час ливневой дождь  10/10 180 м кучево-дожд. 
[Cb calv]
+8.9 +8.1 95 +7  990.3  -2.7  732  284           
03 16.09.19 250 (З) 5{10}  10 км    10/10 270 м 
[Sc]
+9.5 +8.3 92 +8  989.7  -0.6  732  283  +7.3      влажная 
06 16.09.19 250 (З) 10 км  {ливн. осадки}  9/8 420 м кучево-дожд., средняя 
[Cb calv|Ac trans]
+10.1 +8.5 90 +9  989.2  -0.5  731  283           
09 16.09.19 250 (З) 4{11}  10 км  слаб. ливневой дождь  10/10 330 м кучево-дожд. 
[Cb calv]
+10.2 +8.4 89 +9  988.8  -0.4  731  282           
12 16.09.19 250 (З) 4{12}  10 км  в посл. час ливневой дождь  9/8 500 м кучево-дожд., средняя, верхняя 
[Cb calv|Ac trans|Ci fib]
+11.7 +8.3 80 +11  988.5  -0.2  731  281           
15 16.09.19 240 (ЮЗ) 3{10}  10 км  в посл. час ливневой дождь  9/8 800 м кучево-дожд., средняя, верхняя 
[Cb calv|Ac trans|Ci fib]
+10.1 +7.2 82 +10  988.4  -0.2  731  283    +13.2     
18 16.09.19 240 (ЮЗ) 10 км  {ливн. осадки}  9/4 1000 м средняя, верхняя 
[Sc|Ac trans|Ci fib]
+9.6 +7.1 84 +9  987.6  -0.8  730  283           
21 16.09.19 250 (З) 3{11}  5000 м  слаб. ливневой дождь  10/8 150 м кучево-дожд., средняя 
[Cb calv|Ac trans]
+7.7 +7.1 96 +7  986.9  -0.8  730  285           
00 17.09.19 260 (З) 5000 м  слаб. ливневой дождь  10/10 240 м кучево-дожд. 
[Cb calv]
+8 +7.6 97 +8  987  0.1  730  284           
03 17.09.19 270 (З) 3300 м  слаб. ливневой дождь  10/8 240 м кучево-дожд., средняя 
[Cb calv|Ac trans]
+7.5 +6.6 94 +7  988  731  285  +7.5      влажная 
06 17.09.19 270 (З) 4600 м  слаб. ливневой дождь  10/10 210 м кучево-дожд. 
[Cb calv]
+7.5 +6.9 96 +6  989.4  1.4  732  286  +7.3         
09 17.09.19 280 (З) 10 км  {ливн. осадки}  10/9 420 м кучево-дожд., средняя 
[Cb calv|Ac trans]
+9.6 +5.9 78 +9  990.6  1.3  733  284           
12 17.09.19 260 (З) 4600 м  слаб. ливневой дождь  10/8 240 м кучево-дожд., средняя 
[Cb calv|Ac trans]
+9.2 +7.7 90 +9  991.5  0.9  733  284           
15 17.09.19 260 (З) 4000 м  ливневой дождь  10/10 180 м кучево-дожд. 
[Cb calv]
+8.4 +7.6 95 +8  992  0.4  734  285    +10.6     
18 17.09.19 260 (З) 10 км  в посл. час ливневой дождь  10/8 180 м кучево-дожд., средняя 
[Cb calv|Ac trans]
+7.8 +7.6 99 +8  993.1  1.1  734  286           
21 17.09.19 260 (З) 10 км    10/10 150 м 
[Sc]
+6.8 +6.4 97 +7  993.5  0.3  735  288           
00 18.09.19 270 (З) 5000 м  дымка  10/10 100 м 
[St]
+6.8 +6.6 99 +8  993.9  0.4  735  288           
03 18.09.19 280 (З) 10 км    10/10 120 м 
[Sc]
+6.8 +6.4 97 +7  994.5  0.6  735  288  +6.6      влажная 
06 18.09.19 320 (СЗ) 10 км  слаб. ливневой дождь  10/8 330 м кучево-дожд., средняя 
[Cb calv|Ac trans]
+7.7 +6.8 94 +9  995.3  0.9  736  287           
09 18.09.19 350 (С) 10 км  в посл. час ливневой дождь  8/6 420 м кучево-дожд., средняя 
[Cb calv|Ac trans]
+10.3 +6.9 79 +10  996.2  737  285           
Время (UTC), дата Ветер
(°,м/с) 
Видим.   Явления Облачность Т
(°С)
Тd
(°С)
f(%) Тe
(°С)
Pmin
(гПа)
dP
(гПа)
Po
(мм)
O2
(г/м3)
Тmin Tmax R s Состояние
почвы

Для получения пояснительной информации подведите курсор к названию столбца.

ПОГОДА в Череповеце - архив

Всё, что Вы хотите узнать о погоде в Череповеце - удобно и подробно!

Выберите нужную дату (начиная с 1 января 2018* года) и нажмите кнопку "Найти".
Будут отображены архивные сводки погоды по пункту Череповец, начиная с указанной даты.


Отображать данные в формате CSV (для использования в таблицах Excel)


Внимание! Наш архив погоды предназначен исключительно для личного некоммерческого использования в познавательных целях. Если Вам необходимы официальные справки о состоянии погоды (для производственных, юридических, коммерческих и т.п. целей), обращайтесь в органы Росгидромета.

*Примечание: данная дата относится к архиву по метеостанциям СССР (Россия, СНГ, Балтия).
Архив по метеостанциям Зарубежной Европы и Азии (кроме Китая) хранится 10 дней, по другим регионам земного шара (Китай, Африка, Америка, Австралия, Океания) - 1 день.

Череповец - район местоположения метеостанции


Название, широта, долгота, высота метеостанции:
Череповец 59.2°ш. 38°д. 114 м над ур. моря [Российская Федерация]

Дополнительная информация

В oтличие oт бoльшинства пoгoдных сайтoв мы публикуем пoдрoбную метеoинфoрмацию в детальнoм прoфессиoнальнoм фoрмате.

Характеристики температуры и влажнoсти вoздуха измеряются на высoте 2 м в тени вдали oт зданий и деревьев.
Скoрoсть ветра измеряется на высoте 10 м (на урoвне рoста челoвека скoрoсть ветра ниже в 1.5-2 раза). Если метеoстанция нахoдится в гoрoде или в лесу, тo скoрoсть ветра занижена на 2-4 м/с пo сравнению с oткрытым местoм. Скoрoсть ветра над акватoриями крупных рек и oзёр, а также на вершинах хoлмoв на 2-5 м/с выше, чем в oбычных услoвиях.
Атмoсфернoе давление в разных тoчках местнoсти мoжет значительнo oтличаться oт давления на метеoстанции, в зависимoсти oт услoвий рельефа (при пoдъёме на 10 м давление пoнижается примернo на 1 мм рт.ст.).